Location: Bad Rothenbrunn
(47.2167°N, 11.2167°E)
Time: 05:04:32
(UTC+00:00)

Cosmos 1959 Rocket - Pass Details

Date: 03 March 2021
Orbit: 948 x 996 km, 83.0° (Epoch: 22 April)

Event Time Altitude Azimuth Distance (km) Brightness Sun altitude
Rises 19:10:04 0° 186° (S) 3,608 7.4 -22.1°
Reaches altitude 10° 19:12:32 10° 186° (S) 2,665 6.7 -22.5°
Maximum altitude 19:18:38 89° 96° (E) 956 4.3 -23.5°
Drops below altitude 10° 19:24:48 10° 9° (N) 2,690 6.9 -24.5°
Sets 19:27:18 0° 10° (N) 3,644 7.6 -24.9°
